KA9LHE Weather Reports


time (UTC)temp
F
wind
direction
speed
knots
gust
knots
rain 1hr
in
rain 24hr
in
rain mn
in
humidity
%
barometer
mb
20260902231603 90 0 0.0 3.5 0.00 0.00 0.00 70 1014.9
20260902230106 91 0 0.0 3.5 0.00 0.00 0.00 69 1015.0
20260902224627 92 219 0.9 5.2 0.00 0.00 0.00 66 1014.8
20260902223102 92 227 1.7 6.1 0.00 0.00 0.00 66 1014.8
20260902221606 93 192 1.7 4.3 0.00 0.00 0.00 66 1014.9
20260902220117 93 195 1.7 5.2 0.00 0.00 0.00 65 1014.9
20260902214607 94 225 0.9 4.3 0.00 0.00 0.00 65 1014.9
20260902213109 94 210 2.6 6.1 0.00 0.00 0.00 64 1014.9
20260902211605 93 177 4.3 8.7 0.00 0.00 0.00 63 1014.8
20260902210108 93 190 6.1 11.3 0.00 0.00 0.00 63 1015.0
20260902204604 93 220 4.3 9.6 0.00 0.00 0.00 64 1015.2
20260902203115 93 188 4.3 9.6 0.00 0.00 0.00 65 1015.3
20260902201608 93 168 7.8 13.0 0.00 0.00 0.00 63 1015.3
20260902200109 93 187 6.1 12.2 0.00 0.00 0.00 63 1015.4
20260902194608 93 196 6.1 13.9 0.00 0.00 0.00 64 1015.5
20260902193106 93 207 7.0 13.9 0.00 0.00 0.00 64 1015.6
20260902191605 93 165 7.0 13.9 0.00 0.00 0.00 66 1015.8
20260902190107 93 159 6.1 10.4 0.00 0.00 0.00 66 1016.0
20260902184608 92 169 6.1 13.0 0.00 0.00 0.00 64 1016.0
20260902183105 92 195 7.0 12.2 0.00 0.00 0.00 64 1016.2
20260902181604 92 195 7.0 10.4 0.00 0.00 0.00 66 1016.3
20260902180108 91 187 3.5 10.4 0.00 0.00 0.00 67 1016.6
20260902174605 91 150 6.1 11.3 0.00 0.00 0.00 68 1016.8
20260902173104 91 153 6.1 10.4 0.00 0.00 0.00 70 1017.0
20260902171609 90 182 3.5 9.6 0.00 0.00 0.00 69 1017.1
20260902170104 90 183 4.3 11.3 0.00 0.00 0.00 70 1017.1
20260902164609 89 192 6.1 13.0 0.00 0.00 0.00 71 1017.1
20260902163106 89 210 3.5 7.8 0.00 0.00 0.00 71 1017.3
20260902161607 88 276 2.6 7.8 0.00 0.00 0.00 73 1017.4
20260902160119 88 197 2.6 7.8 0.00 0.00 0.00 73 1017.5
20260902154605 87 211 2.6 7.0 0.00 0.00 0.00 76 1017.6
20260902153119 86 217 2.6 8.7 0.00 0.00 0.00 76 1017.4
20260902151614 85 240 3.5 7.8 0.00 0.00 0.00 76 1017.4
20260902150104 85 236 4.3 10.4 0.00 0.00 0.00 77 1017.4
20260902144607 84 227 2.6 8.7 0.00 0.00 0.00 79 1017.3
20260902143110 83 223 4.3 9.6 0.00 0.00 0.00 79 1017.3
20260902141602 83 186 3.5 7.8 0.00 0.00 0.00 81 1017.2
20260902134611 80 192 2.6 6.1 0.00 0.00 0.00 84 1017.5
20260902133108 79 0 0.0 0.0 0.00 0.00 0.00 86 1017.5
20260902131607 78 0 0.0 0.0 0.00 0.00 0.00 89 1017.4
20260902130114 76 0 0.0 0.0 0.00 0.00 0.00 91 1017.5
20260902124606 75 0 0.0 0.0 0.00 0.00 0.00 93 1017.4
20260902123104 74 0 0.0 0.0 0.00 0.00 0.00 95 1017.4
20260902121602 73 0 0.0 0.0 0.00 0.00 0.00 95 1017.5
20260902120106 73 0 0.0 0.0 0.00 0.00 0.00 95 1017.4
20260902114604 73 0 0.0 0.0 0.00 0.00 0.00 95 1017.4
20260902113106 73 0 0.0 0.0 0.00 0.00 0.00 95 1017.3
20260902111602 73 0 0.0 0.0 0.00 0.00 0.00 94 1017.2
20260902110105 73 0 0.0 0.0 0.00 0.00 0.00 94 1017.1
20260902104623 73 0 0.0 0.0 0.00 0.00 0.00 94 1017.1
20260902103104 73 0 0.0 0.0 0.00 0.00 0.00 94 1016.9
20260902101602 73 0 0.0 0.0 0.00 0.00 0.00 94 1016.8
20260902100128 74 0 0.0 0.0 0.00 0.00 0.00 94 1016.7
20260902094607 74 0 0.0 0.0 0.00 0.00 0.00 94 1016.6
20260902093122 74 0 0.0 0.0 0.00 0.00 0.00 95 1016.5
20260902091614 74 0 0.0 0.0 0.00 0.00 0.00 94 1016.4
20260902090106 74 0 0.0 0.0 0.00 0.00 0.00 94 1016.4
20260902084612 74 0 0.0 0.0 0.00 0.00 0.00 94 1016.5
20260902083111 74 0 0.0 0.0 0.00 0.00 0.00 94 1016.4
20260902081620 75 0 0.0 0.0 0.00 0.00 0.00 94 1016.4
20260902080110 75 0 0.0 0.0 0.00 0.00 0.00 94 1016.3
20260902074606 75 0 0.0 0.0 0.00 0.00 0.00 94 1016.5
20260902073113 75 0 0.0 0.0 0.00 0.00 0.00 94 1016.4
20260902071632 76 0 0.0 0.0 0.00 0.00 0.00 94 1016.3
20260902070113 76 0 0.0 0.0 0.00 0.00 0.00 94 1016.4
20260902064612 76 0 0.0 0.0 0.00 0.00 0.00 93 1016.3
20260902063133 77 0 0.0 0.0 0.00 0.00 0.00 92 1016.3
20260902060140 78 0 0.0 0.0 0.00 0.00 0.00 90 1016.5
20260902054620 78 0 0.0 0.0 0.00 0.00 0.00 91 1016.6
20260902053119 78 0 0.0 0.0 0.00 0.00 0.00 91 1016.5
20260902051615 78 0 0.0 0.0 0.00 0.00 0.00 91 1016.3
20260902050110 78 0 0.0 0.0 0.00 0.00 0.00 92 1016.4
20260902044629 78 0 0.0 0.0 0.00 0.00 0.00 92 1016.4
20260902043124 78 0 0.0 0.0 0.00 0.00 0.00 92 1016.2
20260902041602 78 0 0.0 0.0 0.00 0.00 0.00 92 1016.4
20260902040103 78 0 0.0 0.0 0.00 0.00 0.00 93 1016.4
20260902034604 78 0 0.0 0.0 0.00 0.00 0.00 93 1016.3
20260902033117 78 0 0.0 0.0 0.00 0.00 0.00 93 1016.2
20260902031607 78 0 0.0 0.0 0.00 0.00 0.00 93 1016.2
20260902030104 79 0 0.0 0.0 0.00 0.00 0.00 94 1016.2
20260902024620 79 0 0.0 0.0 0.00 0.00 0.00 94 1016.5
20260902023109 79 0 0.0 0.0 0.00 0.00 0.00 94 1016.4
20260902021616 80 0 0.0 0.0 0.00 0.00 0.00 93 1016.4
20260902020144 80 0 0.0 0.0 0.00 0.00 0.00 92 1016.4
20260902014604 81 0 0.0 0.0 0.00 0.03 0.00 92 1016.3
20260902013115 81 0 0.0 0.0 0.00 0.03 0.00 90 1016.3
20260902011604 82 0 0.0 0.0 0.00 0.03 0.00 89 1016.2
20260902010104 83 0 0.0 0.0 0.00 0.03 0.00 89 1016.0
20260902004607 84 0 0.0 0.0 0.00 0.03 0.00 86 1015.9
20260902003106 85 0 0.0 0.0 0.00 0.03 0.00 86 1015.8
20260902001604 86 0 0.0 0.0 0.00 0.03 0.00 85 1015.9
20260902000105 87 0 0.0 0.0 0.00 0.03 0.00 84 1016.1
20260901234612 88 0 0.0 0.0 0.00 0.03 0.00 83 1016.1
20260901233105 89 0 0.0 0.0 0.00 0.03 0.00 79 1016.2